When you browse on this site, cookies collect data to enhance your experience and personalize the content and advertising you see.
Visit our Privacy Policy to learn more. By continuing to use the site, you agree to this use of cookies and data.
  • In Hungary
  • List of Countries
  • For 7 days
  • Water Temperature
  • Satellite Maps
  • Weather Map
  • News
  • Weather Widgets
  • user-avatar
    Login

    Hourly Weather Brecon

    Today, 21 January, Monday

    Time Temperature Precipitation Wind Pressure Humidity
    00:00 +3°C° 0 mm 1 mps 752 mmHg 92%
    01:00 +2°C° 0 mm 0 mps 752 mmHg 92%
    02:00 +2°C° 0 mm 0 mps 752 mmHg 92%
    03:00 +2°C° 0 mm 0 mps 751 mmHg 92%
    04:00 +2°C° 0 mm 0 mps 751 mmHg 92%
    05:00 +2°C° 0 mm 0 mps 751 mmHg 93%
    06:00 +3°C° 0 mm 1 mps 751 mmHg 93%
    07:00 +3°C° 0 mm 1 mps 751 mmHg 94%
    08:00 +3°C° 0 mm 1 mps 751 mmHg 94%
    09:00 +2°C° 0 mm 2 mps 751 mmHg 95%
    10:00 +3°C° 0 mm 2 mps 750 mmHg 92%
    11:00 +3°C° 0 mm 3 mps 750 mmHg 90%
    12:00 +4°C° 0 mm 4 mps 749 mmHg 87%
    13:00 +4°C° 0.1 mm 4 mps 748 mmHg 87%
    14:00 +3°C° 0.1 mm 5 mps 748 mmHg 87%
    15:00 +3°C° 0.1 mm 6 mps 747 mmHg 87%
    16:00 +3°C° 0.1 mm 6 mps 746 mmHg 85%
    17:00 +3°C° 0.1 mm 6 mps 744 mmHg 84%
    18:00 +3°C° 0.1 mm 7 mps 743 mmHg 82%
    19:00 +2°C° 0.7 mm 8 mps 742 mmHg 84%
    20:00 +2°C° 0.7 mm 9 mps 741 mmHg 86%
    21:00 +2°C° 0.7 mm 9 mps 740 mmHg 88%
    22:00 +2°C° 1.2 mm 8 mps 739 mmHg 85%
    23:00 +2°C° 1.2 mm 7 mps 739 mmHg 82%

    Tomorrow, 22 January, Tuesday

    Time Temperature Precipitation Wind Pressure Humidity
    00:00 +1°C° 1.2 mm 6 mps 738 mmHg 79%
    01:00 -1°C° 0 mm 6 mps 738 mmHg 79%
    02:00 -1°C° 0 mm 6 mps 738 mmHg 79%
    03:00 -2°C° 0 mm 6 mps 738 mmHg 79%
    04:00 -2°C° 0 mm 6 mps 738 mmHg 80%
    05:00 -2°C° 0 mm 6 mps 737 mmHg 80%
    06:00 -2°C° 0 mm 6 mps 737 mmHg 81%
    07:00 -1°C° 0 mm 5 mps 737 mmHg 80%
    08:00 -1°C° 0 mm 4 mps 736 mmHg 79%
    09:00 0°C° 0 mm 4 mps 736 mmHg 77%
    10:00 0°C° 0.4 mm 5 mps 736 mmHg 76%
    11:00 +1°C° 0.4 mm 6 mps 735 mmHg 75%
    12:00 +1°C° 0.4 mm 8 mps 735 mmHg 74%
    13:00 0°C° 0.1 mm 8 mps 735 mmHg 74%
    14:00 0°C° 0.1 mm 8 mps 735 mmHg 73%
    15:00 0°C° 0.1 mm 7 mps 735 mmHg 73%
    16:00 -1°C° 0 mm 7 mps 735 mmHg 75%
    17:00 -2°C° 0 mm 6 mps 735 mmHg 78%
    18:00 -2°C° 0 mm 5 mps 735 mmHg 80%
    19:00 -2°C° 0 mm 5 mps 735 mmHg 81%
    20:00 -2°C° 0 mm 5 mps 735 mmHg 82%
    21:00 -2°C° 0 mm 4 mps 735 mmHg 83%
    22:00 -2°C° 0 mm 4 mps 735 mmHg 82%
    23:00 -2°C° 0 mm 4 mps 735 mmHg 82%

    Day after tomorrow, 23 January, Wednesday

    Time Temperature Precipitation Wind Pressure Humidity
    00:00 -2°C° 0 mm 3 mps 735 mmHg 81%
    01:00 -2°C° 0 mm 4 mps 736 mmHg 81%
    02:00 -2°C° 0 mm 4 mps 736 mmHg 81%
    03:00 -2°C° 0 mm 4 mps 736 mmHg 81%
    04:00 -2°C° 0 mm 4 mps 736 mmHg 81%
    05:00 -2°C° 0 mm 4 mps 737 mmHg 81%
    06:00 -2°C° 0 mm 4 mps 737 mmHg 81%
    07:00 -2°C° 0 mm 4 mps 738 mmHg 82%
    08:00 -1°C° 0 mm 3 mps 738 mmHg 82%
    09:00 -1°C° 0 mm 3 mps 739 mmHg 82%
    10:00 +1°C° 0 mm 3 mps 739 mmHg 78%
    11:00 +1°C° 0 mm 4 mps 740 mmHg 73%
    12:00 +3°C° 0 mm 4 mps 740 mmHg 68%
    13:00 +3°C° 0 mm 4 mps 740 mmHg 69%
    14:00 +3°C° 0 mm 3 mps 740 mmHg 70%
    15:00 +3°C° 0 mm 3 mps 740 mmHg 71%
    16:00 +2°C° 0 mm 3 mps 741 mmHg 75%
    17:00 +1°C° 0 mm 3 mps 741 mmHg 80%
    18:00 +1°C° 0 mm 2 mps 742 mmHg 84%
    19:00 +1°C° 0 mm 2 mps 742 mmHg 84%
    20:00 +1°C° 0 mm 2 mps 743 mmHg 85%
    21:00 -1°C° 0 mm 2 mps 744 mmHg 85%
    22:00 -1°C° 0 mm 2 mps 744 mmHg 86%
    23:00 +1°C° 0 mm 1 mps 744 mmHg 86%

    24 January, Thursday

    Time Temperature Precipitation Wind Pressure Humidity
    00:00 +1°C° 0 mm 1 mps 744 mmHg 86%
    01:00 +1°C° 0 mm 1 mps 745 mmHg 86%
    02:00 +2°C° 0 mm 1 mps 745 mmHg 85%
    03:00 +1°C° 0 mm 0 mps 745 mmHg 84%
    04:00 +2°C° 0 mm 1 mps 745 mmHg 84%
    05:00 +3°C° 0 mm 1 mps 745 mmHg 83%
    06:00 +3°C° 0 mm 1 mps 745 mmHg 83%
    07:00 +3°C° 0.2 mm 2 mps 745 mmHg 85%
    08:00 +3°C° 0.2 mm 2 mps 746 mmHg 88%
    09:00 +2°C° 0.2 mm 3 mps 746 mmHg 90%
    10:00 +2°C° 0.3 mm 3 mps 746 mmHg 90%
    11:00 +3°C° 0.3 mm 4 mps 746 mmHg 90%
    12:00 +2°C° 0.3 mm 5 mps 746 mmHg 91%
    13:00 +2°C° 0.3 mm 5 mps 746 mmHg 92%
    14:00 +3°C° 0.3 mm 5 mps 745 mmHg 93%
    15:00 +3°C° 0.3 mm 5 mps 745 mmHg 94%
    16:00 +5°C° 0 mm 4 mps 745 mmHg 95%
    17:00 +5°C° 0 mm 4 mps 745 mmHg 95%
    18:00 +7°C° 0 mm 3 mps 745 mmHg 96%
    19:00 +7°C° 0 mm 3 mps 746 mmHg 96%
    20:00 +5°C° 0 mm 3 mps 746 mmHg 95%
    21:00 +5°C° 0 mm 3 mps 746 mmHg 95%
    22:00 +5°C° 0 mm 4 mps 746 mmHg 95%
    23:00 +5°C° 0 mm 4 mps 746 mmHg 95%

    25 January, Friday

    Time Temperature Precipitation Wind Pressure Humidity
    00:00 +5°C° 0 mm 4 mps 746 mmHg 95%
    01:00 +5°C° 0 mm 4 mps 746 mmHg 96%
    02:00 +5°C° 0 mm 4 mps 746 mmHg 96%
    03:00 +5°C° 0 mm 4 mps 746 mmHg 96%
    04:00 +5°C° 0 mm 4 mps 746 mmHg 96%
    05:00 +5°C° 0 mm 4 mps 746 mmHg 96%
    06:00 +5°C° 0 mm 4 mps 746 mmHg 96%
    07:00 +6°C° 0 mm 4 mps 746 mmHg 95%
    08:00 +6°C° 0 mm 4 mps 746 mmHg 94%
    09:00 +6°C° 0 mm 4 mps 746 mmHg 94%
    10:00 +6°C° 0 mm 5 mps 746 mmHg 91%
    11:00 +7°C° 0 mm 5 mps 746 mmHg 89%
    12:00 +8°C° 0 mm 6 mps 747 mmHg 86%
    13:00 +8°C° 0 mm 6 mps 746 mmHg 86%
    14:00 +8°C° 0 mm 6 mps 746 mmHg 86%
    15:00 +8°C° 0 mm 6 mps 745 mmHg 85%
    16:00 +7°C° 0 mm 6 mps 745 mmHg 87%
    17:00 +7°C° 0 mm 6 mps 745 mmHg 89%
    18:00 +5°C° 0 mm 6 mps 745 mmHg 92%
    19:00 +5°C° 0 mm 6 mps 745 mmHg 92%
    20:00 +7°C° 0 mm 5 mps 745 mmHg 93%
    21:00 +7°C° 0 mm 5 mps 745 mmHg 94%
    22:00 +7°C° 0.3 mm 6 mps 744 mmHg 95%
    23:00 +8°C° 0.3 mm 6 mps 744 mmHg 95%

    26 January, Saturday

    Time Temperature Precipitation Wind Pressure Humidity
    00:00 +8°C° 0.3 mm 7 mps 743 mmHg 95%
    01:00 +8°C° 0.3 mm 7 mps 742 mmHg 95%
    02:00 +7°C° 0.3 mm 8 mps 741 mmHg 94%
    03:00 +7°C° 0.3 mm 8 mps 740 mmHg 94%
    04:00 +7°C° 0.1 mm 8 mps 739 mmHg 93%
    05:00 +7°C° 0.1 mm 8 mps 738 mmHg 93%
    06:00 +7°C° 0.1 mm 8 mps 737 mmHg 93%
    07:00 +7°C° 0.9 mm 8 mps 736 mmHg 93%
    08:00 +7°C° 0.9 mm 9 mps 735 mmHg 93%
    09:00 +7°C° 0.9 mm 9 mps 734 mmHg 93%
    10:00 +7°C° 0.8 mm 9 mps 732 mmHg 88%
    11:00 +6°C° 0.8 mm 9 mps 730 mmHg 84%
    12:00 +5°C° 0.8 mm 9 mps 729 mmHg 79%
    13:00 +5°C° 0.3 mm 8 mps 727 mmHg 83%
    14:00 +5°C° 0.3 mm 7 mps 726 mmHg 87%
    15:00 +5°C° 0.3 mm 6 mps 724 mmHg 91%
    16:00 +5°C° 0.8 mm 7 mps 724 mmHg 90%
    17:00 +5°C° 0.8 mm 8 mps 724 mmHg 89%
    18:00 +5°C° 0.8 mm 9 mps 725 mmHg 88%
    19:00 +3°C° 0.1 mm 10 mps 726 mmHg 86%
    20:00 +3°C° 0.1 mm 11 mps 727 mmHg 84%
    21:00 +3°C° 0.1 mm 12 mps 728 mmHg 82%
    22:00 +2°C° 0 mm 12 mps 730 mmHg 81%
    23:00 0°C° 0 mm 12 mps 731 mmHg 79%
    Show more